DECAYED

STARLINK-5687, 55473 (Decayed)

Orbit data source: Space-Track

STARLINK-5687, 55473 was a payload satellite owned by SpaceX/Seattle (US) in LEO that was launched on Thu, 02 Feb 2023 UTC via an FALCON 9 launch vehicle from the Air Force Eastern Test Range (AFETR). Payload-class satellites include a variety of spacecraft equipped with specific instruments for various scientific and technological missions. These include communications satellites like Starlink; space stations such as the ISS; scientific satellites like the Hubble; Earth observation satellites from companies like Planet Labs, Umbra, and HawkEye 360; GPS; miniature CubeSats for education and research; and military/defense satellites.

Not visible in the next 10 days
Identifier
55473, 2023-015AA
Orbit
Decayed
Country
Flag of USUS
Related business
Manufacturer
SpaceX/Seattle
Mission
Decayed Commercial Communications
Bus & Motor
STARLINK, Unknown motor
Mass
305 kg wet, ~290 kg dry
Launch date (UTC)
2023-02-02 (3 years ago)
Launch vehicle
FALCON 9
Launch site
Air Force Eastern Test Range (AFETR)
Object type
Payload
Rocket body
Debris
Shape & HBR
Box + 1 Pan, 10.1 m
Radar Cross Section
13.562 m², Large (>1 m²)

Expand to show TLE details & history
Last TLE update: 5 months ago

TLE from 5 months ago
0 STARLINK-5687
1 55473U 23015AA  25335.18140218  .09038007  92943-5  52144-3 0  9996
2 55473  42.9629 315.8344 0002944 135.8651 224.2477 16.41641253158087
Epoch: 2025-12-01T04:21Z
TLE epoch observation values (Epoch: 2025-12-01T04:21:13.148Z)
Latitude
-0.00002°
Longitude
-179.755°
Altitude
162.579 km
Speed
7.81 km/s
True Right ascension
21h 03m 20s
True Declination
0° 00' 00"
Sunlit
Object was in daylight at epoch
Visualization orbit readout
Latitude
Unknown
Longitude
Unknown
Altitude
Unknown
Speed
Unknown
Apparent Right ascension
Unknown
Apparent Declination
Unknown
Sunlit
N/A
Visualization observer readout
Local Sidereal Time
12:10:31
Azimuth
Unknown
Elevation
Unknown
Doppler factor
Unknown
Orbital elements
Apogee altitude
165.413 km
Perigee altitude
161.561 km
Semi-major axis
6,541.624 km
Eccentricity
0.00029
Inclination
42.9629°
RAAN
315.8344°
Arg. of periapsis
135.8651°
True anomaly
224.22417°
Mean anomaly
224.2477°
Eccentric anomaly
224.23593°
Mean motion
4.10218 °/min
Orbital period
87.76 mins
BSTAR
0.00052144
Loading maneuver chart data...
Computing Atmospheric mass density...
Loading historical data...
Loading historical data...
Loading historical data...
Loading historical data...
Loading historical data...
Loading historical data...
Loading historical data...

Documentation

Showing up to 5 results
|